TimeHST,TemperatureF,Dew PointF,Humidity,Sea Level PressureIn,VisibilityMPH,Wind Direction,Wind SpeedMPH,Gust SpeedMPH,PrecipitationIn,Events,Conditions,WindDirDegrees,DateUTC
12:53 AM,77.0,69.1,76,29.92,10.0,NW,4.6,-,N/A,,Partly Cloudy,310,2013-09-15 10:53:00
1:53 AM,77.0,69.1,76,29.91,10.0,NNW,4.6,-,N/A,,Partly Cloudy,330,2013-09-15 11:53:00
2:53 AM,75.9,68.0,76,29.90,10.0,NNW,3.5,-,N/A,,Partly Cloudy,340,2013-09-15 12:53:00
3:53 AM,75.9,69.1,79,29.89,10.0,NNW,3.5,-,N/A,,Partly Cloudy,340,2013-09-15 13:53:00
4:53 AM,75.0,69.1,82,29.90,10.0,Calm,Calm,-,N/A,,Partly Cloudy,0,2013-09-15 14:53:00
5:53 AM,75.0,69.1,82,29.91,10.0,Calm,Calm,-,N/A,,Scattered Clouds,0,2013-09-15 15:53:00
6:53 AM,75.9,72.0,87,29.94,10.0,Calm,Calm,-,0.00,,Mostly Cloudy,0,2013-09-15 16:53:00
7:53 AM,79.0,70.0,74,29.96,10.0,ESE,3.5,-,N/A,,Mostly Cloudy,110,2013-09-15 17:53:00
8:53 AM,82.0,66.0,58,29.96,10.0,East,8.1,-,0.00,,Scattered Clouds,80,2013-09-15 18:53:00
9:53 AM,86.0,64.9,49,29.97,10.0,East,16.1,21.9,N/A,,Scattered Clouds,90,2013-09-15 19:53:00
10:53 AM,87.1,63.0,44,29.97,10.0,East,13.8,21.9,N/A,,Scattered Clouds,100,2013-09-15 20:53:00
11:53 AM,88.0,63.0,43,29.96,10.0,East,13.8,21.9,N/A,,Scattered Clouds,80,2013-09-15 21:53:00
12:53 PM,88.0,63.0,43,29.95,10.0,ENE,15.0,21.9,N/A,,Scattered Clouds,60,2013-09-15 22:53:00
1:53 PM,89.1,63.0,42,29.93,10.0,ENE,15.0,-,N/A,,Scattered Clouds,60,2013-09-15 23:53:00
2:53 PM,88.0,64.9,46,29.92,10.0,ENE,17.3,24.2,N/A,,Scattered Clouds,70,2013-09-16 00:53:00
3:53 PM,86.0,64.9,49,29.92,10.0,NE,16.1,24.2,N/A,,Scattered Clouds,50,2013-09-16 01:53:00
4:53 PM,84.9,66.0,53,29.92,10.0,ENE,15.0,-,N/A,,Scattered Clouds,60,2013-09-16 02:53:00
5:53 PM,82.9,66.9,58,29.94,10.0,NE,17.3,21.9,N/A,,Scattered Clouds,50,2013-09-16 03:53:00
6:53 PM,81.0,66.0,60,29.95,10.0,NE,15.0,21.9,N/A,,Mostly Cloudy,50,2013-09-16 04:53:00
7:53 PM,80.1,66.9,64,29.95,10.0,ENE,13.8,-,N/A,,Partly Cloudy,70,2013-09-16 05:53:00
8:53 PM,80.1,66.9,64,29.97,10.0,ENE,13.8,-,N/A,,Scattered Clouds,60,2013-09-16 06:53:00
9:53 PM,80.1,66.9,64,29.99,10.0,ENE,11.5,-,N/A,,Scattered Clouds,60,2013-09-16 07:53:00
10:53 PM,80.1,66.9,64,29.99,10.0,ENE,15.0,-,N/A,,Scattered Clouds,60,2013-09-16 08:53:00
11:53 PM,79.0,66.9,66,29.99,10.0,ENE,13.8,20.7,N/A,,Scattered Clouds,60,2013-09-16 09:53:00